Weather History for Metropolis, IL

Change the Weather History Date:

Monday, January 21, 2013

  Actual Average (KPAH) Record (KPAH)
Temperature  
Mean Temperature 28 °F 34 °F  
Max Temperature 34 °F 43 °F 70 °F (1986)
Min Temperature 22 °F 26 °F -10 °F (1985)
Degree Days  
Heating Degree Days 36 30  
Month to date heating degree days 647  
Since 1 July heating degree days 2278  
Cooling Degree Days 0 0  
Month to date cooling degree days 0  
Year to date cooling degree days 0  
Moisture  
Dew Point 12 °F    
Average Humidity 52    
Maximum Humidity 72    
Minimum Humidity 37    
Precipitation  
Precipitation 0.00 in 0.12 in 1.89 in (1973)
Month to date precipitation 2.48  
Year to date precipitation 2.48  
Snow  
Snow 0.00 in 0.10 in 1.00 in (1979)
Month to date snowfall 1.9  
Since 1 July snowfall 4.2  
Snow Depth -    
Sea Level Pressure  
Sea Level Pressure 30.30 in    
Wind  
Wind Speed 6 mph (NNW)    
Max Wind Speed 15 mph    
Max Gust Speed 21 mph    
Visibility 10 miles    
Events      
T = Trace of Precipitation, MM = Missing Value Source: NWS Daily Summary

Daily Weather History Graph

Daily Weather History Graph

Search for Another Location

Airport:

Trip Planner

Search our weather history database for the weather conditions in past years. The results will help you decide how hot, cold, wet, or windy it might be!

Date:

Astronomy

Jan. 21, 2013 Rise Set
Actual Time 7:05 AM CST 5:08 PM CST
Civil Twilight 6:37 AM CST 5:36 PM CST
Nautical Twilight 6:05 AM CST 6:07 PM CST
Astronomical Twilight 5:34 AM CST 6:38 PM CST
Moon 12:48 PM CST (1/21) 2:32 AM CST (1/21)
Length of Visible Light 10h 59m
Length of Day
10h 02m
Waxing Gibbous, 75% of the Moon is Illuminated
Jan 21
Waxing Gibbous
Jan 26
Full
Feb 3
Last Quarter
Feb 10
New
Feb 17
First Quarter

Hourly Weather History & Observations

Time (CST) Temp. Windchill Dew Point Humidity Pressure Visibility Wind Dir Wind Speed Gust Speed Precip Events Conditions
12:15 AM 28.2 °F - 18.1 °F 66% 30.23 in 10.0 mi Calm Calm - N/A   Clear
12:35 AM 28.0 °F 24.2 °F 18.3 °F 67% 30.24 in 10.0 mi North 3.5 mph - N/A   Clear
12:55 AM 27.5 °F - 18.0 °F 67% 30.24 in 10.0 mi Calm Calm - N/A   Clear
1:15 AM 26.8 °F - 18.0 °F 69% 30.24 in 10.0 mi Calm Calm - N/A   Clear
1:35 AM 27.1 °F 21.8 °F 18.0 °F 68% 30.25 in 10.0 mi NNW 4.6 mph - N/A   Clear
1:55 AM 27.3 °F 23.4 °F 17.6 °F 67% 30.25 in 10.0 mi NNW 3.5 mph - N/A   Clear
2:15 AM 27.5 °F 22.2 °F 17.6 °F 66% 30.25 in 10.0 mi NNW 4.6 mph - N/A   Clear
2:35 AM 27.5 °F - 17.8 °F 67% 30.26 in 10.0 mi Calm Calm - N/A   Clear
2:55 AM 27.3 °F 23.4 °F 18.5 °F 69% 30.26 in 10.0 mi NNW 3.5 mph - N/A   Clear
3:15 AM 27.3 °F 23.4 °F 19.2 °F 72% 30.26 in 10.0 mi NW 3.5 mph - N/A   Clear
3:35 AM 27.7 °F 22.4 °F 18.5 °F 68% 30.27 in 10.0 mi NW 4.6 mph - N/A   Clear
3:55 AM 27.7 °F 20.4 °F 17.6 °F 66% 30.27 in 10.0 mi NNW 6.9 mph - N/A   Clear
4:15 AM 27.5 °F 20.2 °F 17.4 °F 66% 30.27 in 10.0 mi NNW 6.9 mph - N/A   Clear
4:35 AM 27.5 °F 20.2 °F 17.6 °F 66% 30.27 in 10.0 mi NW 6.9 mph - N/A   Clear
4:55 AM 27.1 °F 20.7 °F 17.6 °F 67% 30.28 in 10.0 mi NNW 5.8 mph - N/A   Clear
5:15 AM 26.6 °F 22.6 °F 17.6 °F 69% 30.29 in 10.0 mi NW 3.5 mph - N/A   Clear
5:35 AM 25.7 °F 21.5 °F 17.4 °F 71% 30.29 in 10.0 mi NW 3.5 mph - N/A   Clear
5:55 AM 25.0 °F 19.3 °F 17.2 °F 72% 30.30 in 10.0 mi NW 4.6 mph - N/A   Clear
6:15 AM 25.3 °F 17.6 °F 17.1 °F 71% 30.30 in 10.0 mi NW 6.9 mph - N/A   Clear
6:55 AM 24.6 °F 15.1 °F 15.4 °F 68% 30.32 in 10.0 mi NW 9.2 mph - N/A   Clear
7:15 AM 24.4 °F 12.4 °F 13.8 °F 64% 30.33 in 10.0 mi NNW 13.8 mph - N/A   Clear
7:35 AM 24.4 °F 14.2 °F 13.8 °F 64% 30.33 in 10.0 mi NNW 10.4 mph 19.6 mph N/A   Clear
7:55 AM 24.8 °F 14.6 °F 14.4 °F 65% 30.33 in 10.0 mi NNW 10.4 mph - N/A   Clear
8:15 AM 25.3 °F 14.7 °F 13.6 °F 61% 30.34 in 10.0 mi NNW 11.5 mph - N/A   Clear
8:35 AM 25.7 °F 14.6 °F 13.3 °F 59% 30.34 in 10.0 mi NNW 12.7 mph - N/A   Clear
8:55 AM 26.4 °F 16.0 °F 13.1 °F 57% 30.34 in 10.0 mi NW 11.5 mph 16.1 mph N/A   Clear
9:15 AM 27.1 °F 18.2 °F 13.3 °F 56% 30.34 in 10.0 mi NW 9.2 mph - N/A   Clear
9:35 AM 28.2 °F 18.9 °F 12.2 °F 51% 30.34 in 10.0 mi NNW 10.4 mph - N/A   Clear
9:55 AM 28.4 °F 18.0 °F 12.2 °F 51% 30.35 in 10.0 mi NW 12.7 mph - N/A   Clear
10:15 AM 29.7 °F 20.1 °F 12.2 °F 48% 30.35 in 10.0 mi NW 11.5 mph 16.1 mph N/A   Clear
10:35 AM 30.0 °F 20.5 °F 11.8 °F 47% 30.34 in 10.0 mi WNW 11.5 mph - N/A   Clear
10:55 AM 30.2 °F 21.3 °F 11.5 °F 46% 30.34 in 10.0 mi NW 10.4 mph 18.4 mph N/A   Clear
11:15 AM 30.9 °F 21.7 °F 11.5 °F 44% 30.32 in 10.0 mi WNW 11.5 mph 16.1 mph N/A   Clear
11:35 AM 31.1 °F 22.4 °F 10.4 °F 42% 30.31 in 10.0 mi WNW 10.4 mph - N/A   Clear
11:55 AM 32.0 °F 21.6 °F 10.8 °F 41% 30.31 in 10.0 mi NW 15.0 mph 19.6 mph N/A   Clear
12:15 PM 32.2 °F 24.4 °F 11.3 °F 42% 30.30 in 10.0 mi NW 9.2 mph 17.3 mph N/A   Clear
12:35 PM 32.7 °F 28.3 °F 12.0 °F 42% 30.28 in 10.0 mi WNW 4.6 mph - N/A   Clear
12:55 PM 33.1 °F 24.4 °F 12.2 °F 42% 30.28 in 10.0 mi WNW 11.5 mph 16.1 mph N/A   Clear
1:15 PM 34.0 °F 25.5 °F 12.4 °F 41% 30.28 in 10.0 mi NW 11.5 mph - N/A   Clear
1:35 PM 33.8 °F 23.9 °F 10.4 °F 38% 30.26 in 10.0 mi NW 15.0 mph 20.7 mph N/A   Clear
1:55 PM 34.2 °F 25.2 °F 10.8 °F 38% 30.27 in 10.0 mi WNW 12.7 mph - N/A   Clear
2:15 PM 34.5 °F 25.7 °F 10.2 °F 37% 30.27 in 10.0 mi NW 12.7 mph 20.7 mph N/A   Clear
2:55 PM 34.0 °F 26.0 °F 10.0 °F 37% 30.27 in 10.0 mi NNW 10.4 mph - N/A   Clear
3:15 PM 33.6 °F 24.1 °F 9.9 °F 37% 30.29 in 10.0 mi NNW 13.8 mph 20.7 mph N/A   Clear
3:35 PM 33.1 °F 24.4 °F 9.5 °F 37% 30.28 in 10.0 mi NNW 11.5 mph 17.3 mph N/A   Clear
3:55 PM 32.7 °F 23.9 °F 8.6 °F 37% 30.29 in 10.0 mi NNW 11.5 mph 17.3 mph N/A   Clear
4:15 PM 32.2 °F 24.4 °F 8.6 °F 37% 30.30 in 10.0 mi NW 9.2 mph - N/A   Clear
4:35 PM 31.6 °F 23.1 °F 8.1 °F 37% 30.29 in 10.0 mi NNW 10.4 mph 18.4 mph N/A   Clear
4:55 PM 31.1 °F 23.1 °F 8.2 °F 38% 30.29 in 10.0 mi NNW 9.2 mph - N/A   Clear
5:15 PM 30.2 °F 20.8 °F 8.2 °F 40% 30.30 in 10.0 mi NNW 11.5 mph - N/A   Clear
5:35 PM 30.2 °F 20.8 °F 8.8 °F 41% 30.30 in 10.0 mi North 11.5 mph - N/A   Scattered Clouds
5:55 PM 28.6 °F 22.4 °F 10.9 °F 48% 30.30 in 10.0 mi North 5.8 mph - N/A   Clear
6:15 PM 28.2 °F 22.0 °F 10.9 °F 48% 30.31 in 10.0 mi NNW 5.8 mph - N/A   Scattered Clouds
6:35 PM 27.5 °F 22.2 °F 11.3 °F 51% 30.31 in 10.0 mi North 4.6 mph - N/A   Scattered Clouds
6:55 PM 27.0 °F 23.0 °F 11.3 °F 52% 30.31 in 10.0 mi North 3.5 mph - N/A   Mostly Cloudy
7:15 PM 26.6 °F 22.6 °F 10.0 °F 50% 30.31 in 10.0 mi North 3.5 mph - N/A   Mostly Cloudy
7:35 PM 26.4 °F 20.9 °F 9.7 °F 49% 30.31 in 10.0 mi NNW 4.6 mph - N/A   Mostly Cloudy
7:55 PM 26.1 °F 18.4 °F 9.0 °F 49% 30.31 in 10.0 mi NNW 6.9 mph - N/A   Mostly Cloudy
8:15 PM 25.7 °F 18.0 °F 7.3 °F 46% 30.32 in 10.0 mi North 6.9 mph - N/A   Mostly Cloudy
8:35 PM 25.7 °F 17.1 °F 7.2 °F 45% 30.32 in 10.0 mi North 8.1 mph - N/A   Overcast
8:55 PM 24.8 °F 16.1 °F 6.1 °F 45% 30.33 in 10.0 mi North 8.1 mph - N/A   Scattered Clouds
9:15 PM 24.6 °F 15.8 °F 5.2 °F 44% 30.33 in 10.0 mi North 8.1 mph - N/A   Scattered Clouds
9:35 PM 24.4 °F 15.6 °F 6.3 °F 46% 30.33 in 10.0 mi North 8.1 mph - N/A   Mostly Cloudy
9:55 PM 23.9 °F 15.8 °F 5.5 °F 46% 30.34 in 10.0 mi North 6.9 mph - N/A   Scattered Clouds
10:15 PM 23.9 °F 16.8 °F 5.5 °F 46% 30.34 in 10.0 mi North 5.8 mph - N/A   Clear
10:35 PM 23.7 °F 14.0 °F 4.3 °F 43% 30.35 in 10.0 mi NNW 9.2 mph - N/A   Mostly Cloudy
10:55 PM 23.7 °F 15.6 °F 5.0 °F 45% 30.35 in 10.0 mi North 6.9 mph - N/A   Overcast
11:15 PM 23.4 °F 15.2 °F 5.5 °F 47% 30.35 in 10.0 mi North 6.9 mph - N/A   Overcast
11:35 PM 23.0 °F 15.8 °F 5.0 °F 46% 30.36 in 10.0 mi North 5.8 mph - N/A   Overcast
11:55 PM 22.5 °F 13.2 °F 4.5 °F 46% 30.36 in 10.0 mi North 8.1 mph - N/A   Overcast